Wind_Speed
15 15 16 16 16 15 14 14 13 12 12 11 11 10 9 9 8 6 6 5 4 2 2 1 1 2 2 2 3 4 4 5 5 5 5 6 7 7 8 8 9 9 9
15 15 15 15 16 15 14 13 13 12 12 12 11 10 10 10 10 9 7 6 5 4 3 2 2 2 2 3 3 4 5 5 5 6 6 7 7 7 8 9 9 9 11
13 14 15 15 15 15 15 14 13 12 12 12 12 12 11 11 11 10 9 8 6 5 4 3 3 3 3 4 4 5 5 6 6 6 7 7 8 8 8 9 9 10 11
11 12 13 13 14 14 14 13 13 12 12 13 13 12 11 11 11 10 9 8 7 6 5 5 5 4 5 5 5 5 5 6 7 7 8 8 8 9 9 9 10 10 11
10 10 11 12 12 13 13 13 13 12 12 12 12 12 12 11 11 10 10 9 8 7 6 5 5 6 6 6 6 6 6 7 8 9 9 9 10 10 10 11 11 11 12
8 9 10 11 11 12 12 12 13 12 12 12 12 12 12 12 12 11 10 10 10 9 7 7 6 6 7 7 7 8 8 9 9 10 11 11 11 11 11 12 12 12 13
7 8 9 10 10 11 11 11 12 12 12 13 13 13 12 12 12 12 12 12 11 10 9 8 8 8 8 7 7 8 9 9 9 10 10 11 12 12 12 13 13 14 14
7 8 9 10 10 10 11 10 11 11 12 12 13 14 13 13 12 12 12 12 11 10 10 9 9 8 8 8 8 9 10 9 9 10 10 11 11 12 13 14 14 14 15
6 7 8 9 9 10 10 10 9 10 10 11 12 13 14 14 13 13 13 13 12 12 11 11 10 10 9 10 10 10 11 11 11 11 11 12 12 13 14 14 15 15 15
6 6 7 8 8 9 9 9 8 8 9 10 11 13 14 14 14 14 14 14 13 13 12 12 12 11 10 11 11 11 11 11 11 12 12 12 13 14 15 15 16 16 17
6 6 7 7 7 8 9 8 7 8 9 10 11 13 14 15 15 16 17 16 14 14 14 13 12 12 11 11 11 12 12 12 13 13 13 14 14 15 16 16 17 17 18
7 7 7 7 7 7 8 8 8 8 9 11 12 14 15 16 17 17 17 17 16 16 15 14 14 13 12 12 13 13 13 13 13 14 14 15 15 16 17 17 18 18 18
9 9 8 8 7 8 9 8 9 9 10 11 12 14 16 17 17 18 18 18 18 17 16 15 14 13 13 13 14 14 14 14 14 14 15 15 16 16 17 17 17 18 19
10 9 9 8 8 9 10 10 11 11 11 12 13 15 17 18 18 19 19 19 19 18 17 15 14 14 14 14 15 15 15 15 15 15 16 16 16 16 17 17 18 19 19
12 11 11 10 10 11 11 11 12 12 12 13 14 16 17 18 19 19 20 19 19 19 17 16 15 15 15 15 15 16 16 16 16 16 16 16 17 17 18 18 19 20 20
14 13 12 12 12 12 13 14 13 14 14 15 16 17 18 19 19 19 20 20 19 19 18 16 16 16 16 16 16 16 16 17 17 17 17 17 18 18 19 19 20 21 22
15 14 13 13 13 13 14 15 16 16 16 16 18 19 19 20 20 20 20 20 20 19 19 18 18 18 18 18 18 18 18 18 18 18 18 18 19 20 20 21 22 23 23
17 16 16 15 15 15 15 16 17 17 18 18 19 20 20 20 21 21 21 21 21 21 20 20 20 20 20 20 20 20 19 19 19 19 19 20 20 21 22 22 23 24 24
19 18 18 17 18 18 17 17 18 19 19 20 20 21 21 21 21 22 22 23 23 23 22 22 22 22 22 22 22 21 21 20 20 20 20 21 21 22 23 23 24 25 25
22 21 20 20 20 21 20 20 20 20 21 21 22 22 22 22 23 23 23 24 24 24 24 24 24 23 23 23 22 22 22 21 21 21 22 22 23 23 24 24 24 25 26
23 23 23 23 23 23 23 22 22 22 22 22 24 23 23 23 24 24 24 25 25 25 25 25 25 25 24 24 24 24 23 23 23 23 23 24 24 25 25 25 26 26 26
25 24 24 24 24 25 25 25 25 24 23 24 25 25 25 25 25 25 25 26 26 27 27 27 26 26 25 24 24 25 24 24 24 24 25 25 26 26 26 27 27 27 27
27 26 26 26 27 27 26 26 26 26 26 26 27 27 27 27 27 27 27 27 28 29 29 29 28 27 27 26 26 26 25 25 25 26 26 26 27 27 27 27 28 28 29
29 29 28 28 29 28 27 27 28 28 28 28 28 28 28 28 29 29 29 30 30 30 30 29 28 28 27 27 27 26 27 27 26 27 27 28 28 28 29 28 28 29 29
31 31 31 30 29 29 29 30 29 29 29 29 29 29 29 29 29 30 31 31 31 31 31 30 30 29 29 29 29 28 28 27 27 28 29 29 29 29 29 29 29 29 30
33 33 33 32 32 32 32 31 30 30 30 31 31 31 31 31 31 31 32 32 32 33 32 32 31 31 31 30 30 30 30 29 29 30 30 30 30 30 30 29 30 29 29
Wind_Direction
38 39 43 45 45 46 47 50 52 51 51 49 46 44 46 47 47 43 37 34 37 27 13 357 305 270 248 248 251 261 265 269 268 268 274 277 283 280 274 273 275 274 275
39 41 43 45 45 44 44 46 46 46 47 47 45 43 44 44 43 42 39 35 30 20 15 0 334 305 276 269 269 272 270 274 271 272 275 279 281 284 280 279 281 279 278
36 37 40 42 43 43 44 44 42 42 44 44 44 44 44 41 38 37 38 35 28 15 359 347 321 310 296 287 286 285 275 275 275 276 276 282 284 285 282 284 287 283 280
35 35 37 41 41 41 41 40 39 40 40 40 40 40 39 36 33 31 27 22 12 4 353 340 327 321 312 303 297 298 289 282 281 281 279 281 284 286 287 288 289 289 286
26 31 34 38 38 38 39 37 37 38 37 37 37 36 35 32 30 27 21 14 5 354 344 336 323 312 304 300 295 295 292 288 285 282 281 281 284 287 290 291 292 291 289
15 25 30 35 37 37 38 37 36 37 36 34 32 31 29 26 24 20 15 8 2 356 351 340 328 319 311 302 294 294 292 290 286 282 281 282 283 284 287 290 290 291 292
11 19 27 32 35 33 35 37 37 36 36 32 30 27 24 21 18 15 11 4 1 358 352 345 332 322 315 306 298 296 294 294 289 285 282 283 284 283 286 288 290 292 293
7 13 20 26 29 28 27 31 33 33 32 29 27 24 20 15 12 9 6 1 357 353 348 341 332 321 312 307 302 298 295 296 295 290 287 286 287 286 286 290 290 292 295
359 7 12 19 22 20 19 19 23 24 25 24 21 18 14 12 8 4 360 356 350 346 340 336 331 320 310 310 309 301 297 294 295 293 290 286 287 290 290 290 290 292 296
345 359 6 9 13 13 10 7 11 13 13 14 15 12 9 6 3 0 354 349 344 341 337 333 329 326 316 311 312 310 307 300 298 295 292 292 290 291 294 293 293 293 293
336 343 351 353 360 4 0 1 2 360 359 360 360 1 1 359 358 356 352 347 343 340 337 331 329 326 319 314 311 311 308 303 298 295 294 295 295 294 293 294 293 294 293
324 332 340 339 341 349 352 352 353 351 351 353 353 353 355 354 354 352 349 345 342 338 334 330 326 324 321 316 313 310 308 306 302 298 295 295 295 295 295 295 294 295 295
313 324 331 336 338 343 345 342 341 341 341 345 347 347 348 349 349 348 347 343 340 336 333 329 326 322 319 316 313 311 309 307 303 301 299 297 296 296 296 296 298 299 299
303 311 317 328 336 338 342 342 341 337 335 337 341 341 341 342 343 342 343 341 340 336 334 330 325 321 317 314 313 311 309 307 303 302 300 299 298 297 298 298 300 300 301
292 300 303 310 316 322 326 328 334 332 331 331 332 334 334 334 336 338 340 338 337 337 334 331 326 323 320 317 314 312 310 307 305 303 301 301 301 299 298 298 299 300 300
285 291 293 297 304 312 316 317 321 323 323 321 322 325 325 326 328 332 334 336 336 335 332 330 329 324 320 317 314 311 308 307 305 303 301 301 301 300 298 297 297 297 299
276 283 286 290 295 302 309 313 314 316 315 314 313 316 318 324 322 324 327 329 331 330 329 326 324 322 318 315 313 311 307 306 306 304 303 303 303 302 299 297 296 297 300
273 278 280 284 288 292 299 306 308 309 309 309 309 313 317 320 322 322 323 326 325 325 325 324 321 318 316 314 312 311 309 306 305 304 304 304 305 305 302 300 300 301 302
270 273 275 278 284 289 294 299 302 304 306 306 307 309 312 314 316 318 319 321 323 322 322 321 320 317 314 311 311 310 308 306 305 305 304 304 305 305 304 303 303 302 302
266 269 274 279 284 287 290 295 298 300 302 304 307 307 310 311 312 313 313 315 317 319 319 319 318 315 313 311 308 308 306 305 304 303 303 303 304 304 304 304 304 303 303
263 266 271 276 281 285 288 290 294 294 297 301 306 306 309 311 312 312 310 311 313 315 316 316 315 314 312 311 310 308 305 303 303 302 302 302 303 304 305 305 304 304 304
260 264 268 274 278 282 285 286 289 289 293 297 300 303 306 308 310 312 311 309 310 311 312 314 313 313 312 310 309 309 306 304 302 302 302 302 303 303 304 304 305 305 305
259 263 267 271 276 279 282 284 285 288 292 295 297 300 302 303 306 308 309 309 308 310 312 311 310 310 309 307 307 308 305 304 301 301 302 304 303 303 303 304 304 304 305
259 263 267 272 274 276 277 280 282 285 289 292 295 296 297 298 301 303 305 306 308 308 308 309 308 308 307 308 307 305 303 303 302 300 302 304 305 304 304 303 303 303 304
261 264 268 273 274 274 277 279 281 284 288 290 292 294 296 298 299 301 302 303 304 304 305 305 305 305 305 305 305 304 303 303 302 301 302 302 303 304 303 302 302 303 304
261 264 267 270 274 277 279 280 281 284 286 288 290 292 293 295 297 299 300 301 301 301 302 302 303 301 301 302 302 302 302 302 302 301 301 301 301 301 301 301 302 303 303
Height
5914 5911 5908 5907 5905 5903 5902 5900 5899 5898 5897 5895 5894 5893 5892 5891 5890 5890 5889 5889 5889 5888 5888 5888 5888 5888 5888 5889 5889 5889 5889 5889 5889 5889 5889 5888 5888 5888 5887 5887 5887 5887 5886
5916 5914 5911 5909 5907 5905 5904 5902 5901 5900 5898 5897 5896 5894 5893 5892 5892 5891 5890 5889 5889 5889 5888 5888 5888 5888 5888 5888 5888 5888 5888 5887 5887 5887 5887 5887 5887 5886 5886 5885 5885 5885 5884
5918 5916 5914 5911 5909 5907 5905 5904 5903 5902 5900 5899 5897 5896 5895 5894 5893 5892 5891 5890 5889 5889 5889 5888 5888 5887 5887 5887 5887 5886 5886 5886 5886 5886 5886 5886 5885 5885 5884 5883 5883 5882 5881
5920 5918 5915 5913 5911 5909 5907 5906 5904 5903 5902 5900 5899 5898 5896 5895 5894 5893 5891 5891 5890 5889 5889 5888 5887 5887 5886 5886 5885 5885 5885 5885 5885 5884 5884 5884 5883 5883 5882 5882 5881 5880 5879
5921 5919 5917 5915 5913 5911 5909 5907 5906 5904 5903 5902 5900 5899 5898 5896 5895 5894 5892 5891 5890 5889 5888 5887 5886 5886 5885 5884 5884 5884 5883 5883 5883 5882 5882 5881 5881 5880 5880 5879 5879 5878 5877
5922 5920 5919 5916 5914 5912 5911 5909 5907 5906 5904 5903 5902 5900 5899 5897 5896 5894 5893 5891 5889 5888 5887 5886 5885 5884 5883 5883 5882 5882 5881 5881 5880 5880 5879 5879 5879 5878 5877 5877 5876 5875 5874
5923 5922 5920 5918 5916 5914 5912 5911 5909 5907 5906 5904 5903 5901 5900 5898 5896 5894 5892 5891 5889 5887 5886 5885 5884 5883 5882 5881 5880 5880 5879 5878 5877 5877 5877 5876 5876 5875 5875 5874 5873 5872 5871
5924 5922 5920 5918 5917 5915 5914 5912 5910 5909 5907 5906 5904 5902 5900 5898 5897 5895 5893 5891 5889 5887 5885 5884 5882 5881 5880 5879 5878 5878 5877 5876 5875 5875 5874 5873 5873 5872 5871 5871 5870 5869 5867
5924 5923 5921 5919 5917 5916 5914 5913 5912 5910 5908 5907 5905 5903 5901 5899 5897 5895 5893 5890 5888 5886 5884 5883 5881 5879 5878 5877 5876 5875 5874 5874 5873 5872 5871 5870 5870 5869 5868 5867 5866 5865 5864
5925 5923 5921 5919 5917 5916 5915 5913 5912 5910 5909 5908 5906 5904 5902 5899 5897 5894 5892 5890 5887 5885 5883 5881 5880 5878 5876 5875 5874 5873 5872 5871 5870 5869 5868 5868 5867 5866 5865 5863 5862 5861 5860
5924 5923 5921 5919 5918 5916 5915 5913 5912 5910 5909 5908 5906 5904 5902 5899 5897 5894 5891 5889 5886 5884 5882 5879 5878 5876 5874 5873 5872 5871 5870 5869 5867 5866 5865 5864 5863 5862 5861 5859 5858 5857 5855
5923 5922 5920 5919 5917 5916 5914 5912 5911 5910 5909 5907 5905 5904 5901 5899 5896 5894 5891 5888 5885 5882 5880 5878 5876 5874 5872 5871 5870 5869 5867 5866 5865 5863 5862 5861 5859 5858 5857 5856 5854 5852 5851
5922 5920 5919 5917 5916 5915 5913 5911 5911 5909 5908 5906 5905 5903 5901 5898 5896 5893 5890 5887 5884 5881 5878 5876 5874 5872 5870 5869 5867 5866 5864 5863 5861 5860 5859 5857 5856 5854 5853 5851 5850 5848 5846
5920 5919 5917 5916 5915 5914 5912 5911 5910 5908 5907 5905 5904 5902 5900 5897 5895 5892 5889 5885 5882 5879 5876 5874 5871 5870 5868 5866 5865 5863 5861 5859 5858 5856 5855 5853 5852 5850 5849 5847 5845 5844 5842
5917 5917 5916 5915 5914 5913 5911 5910 5909 5907 5905 5904 5902 5900 5898 5896 5893 5890 5887 5883 5880 5876 5874 5872 5869 5867 5865 5863 5861 5860 5858 5856 5854 5853 5851 5849 5848 5846 5844 5842 5841 5839 5837
5915 5914 5913 5912 5911 5910 5909 5908 5907 5905 5903 5902 5900 5898 5896 5893 5890 5887 5884 5881 5878 5875 5872 5869 5867 5865 5863 5860 5858 5856 5854 5852 5850 5848 5847 5845 5843 5841 5839 5838 5836 5834 5832
5911 5911 5910 5909 5908 5907 5907 5905 5904 5902 5901 5899 5897 5895 5892 5889 5886 5884 5881 5878 5875 5872 5870 5867 5864 5862 5859 5857 5855 5853 5850 5848 5846 5844 5842 5840 5838 5836 5834 5832 5830 5828 5826
5907 5906 5906 5905 5905 5904 5903 5902 5900 5899 5897 5895 5893 5891 5888 5886 5883 5881 5878 5875 5872 5869 5866 5863 5861 5858 5856 5853 5851 5849 5846 5844 5842 5840 5838 5836 5833 5831 5829 5826 5824 5822 5819
5902 5902 5901 5901 5901 5900 5899 5898 5897 5895 5893 5891 5889 5887 5885 5882 5880 5877 5875 5872 5869 5866 5863 5860 5857 5854 5851 5849 5846 5844 5841 5839 5837 5835 5833 5830 5828 5826 5823 5821 5818 5815 5813
5897 5897 5896 5896 5896 5895 5894 5893 5892 5890 5889 5887 5884 5882 5880 5878 5875 5873 5870 5867 5865 5862 5859 5855 5852 5849 5846 5844 5841 5838 5836 5834 5832 5830 5827 5825 5822 5820 5817 5815 5812 5809 5806
5891 5891 5891 5891 5890 5889 5888 5887 5886 5884 5883 5881 5879 5877 5875 5873 5870 5867 5864 5862 5860 5857 5853 5850 5847 5844 5841 5838 5836 5833 5831 5828 5826 5824 5821 5819 5816 5814 5811 5808 5805 5802 5799
5885 5885 5885 5885 5884 5883 5882 5881 5880 5879 5877 5876 5874 5871 5869 5867 5865 5862 5859 5857 5854 5851 5848 5844 5841 5839 5835 5833 5830 5827 5825 5822 5820 5817 5815 5812 5810 5807 5804 5801 5798 5795 5792
5878 5878 5878 5878 5877 5877 5876 5875 5874 5872 5871 5869 5867 5865 5863 5861 5859 5856 5854 5851 5848 5845 5842 5839 5836 5833 5830 5827 5824 5821 5818 5815 5813 5811 5808 5805 5802 5800 5797 5794 5791 5788 5785
5870 5870 5870 5870 5870 5869 5869 5867 5866 5865 5864 5862 5860 5858 5856 5854 5852 5850 5847 5844 5842 5839 5836 5833 5830 5827 5824 5821 5817 5814 5811 5809 5806 5804 5801 5799 5796 5793 5790 5787 5784 5781 5777
5861 5862 5862 5862 5862 5861 5860 5860 5858 5857 5856 5854 5853 5852 5850 5847 5845 5842 5840 5837 5834 5831 5828 5825 5823 5820 5817 5814 5810 5807 5805 5802 5799 5797 5794 5791 5788 5785 5782 5779 5776 5773 5770
5852 5853 5853 5853 5853 5853 5852 5850 5850 5849 5848 5846 5845 5843 5842 5840 5837 5835 5832 5829 5827 5823 5820 5817 5815 5812 5809 5806 5803 5800 5798 5795 5792 5789 5786 5783 5780 5777 5774 5771 5768 5765 5762